SCP
0 0 0 0 0 0 0 0 0 0 0 0 0 0 0 0 0 0 0 0 0 0 0 0 0 0 0 0 0 0 0 0 0 0 0 0 0 0
0 0 0 0 0 0 0 0 0 0 0 0 0 0 0 0 0 0 0 0 0 0 0 0 0 0 0 0 0 0 0 0 0 0 0 0 0 0
0 0 0 0 0 0 0 0 0 0 0 0 0 0 0 0 0 0 0 0 0 0 0 0 0 0 0 0 0 0 0 0 0 0 0 0 0 0
0 0 0 0 0 0 0 0 0 0 0 0 0 0 0 0 0 0 0 0 0 0 0 0 0 0 0 0 0 0 0 0 0 0 0 0 0 0
0 0 0 0 0 0 0 0 0 0 0 0 0 0 0 0 0 0 0 0 0 0 0 0 0 0 0 0 0 0 0 0 0 0 0 0 0 0
0 0 0 0 0 0 0 0 0 0 0 0 0 0 0 0 0 0 0 0 0 0 0 0 0 0 0 0 0 0 0 0 0 0 0 0 0 0
0 0 0 0 0 0 0 0 0 0 0 0 0 0 0 0 0 0 0 0 0 0 0 0 0 0 0 0 0 0 0 0 0 0 0 0 0 0
0 0 0 0 0 0 0 0 0 0 0 0 0 0 0 0 0 0 0 0 0 0 0 0 0 0 0 0 0 0 0 0 0 0 0 0 0 0
0 0 0 0 0 0 0 0 0 0 0 0 0 0 0 0 0 0 0 0 0 0 0 0 0 0 0 0 0 0 0 0 0 0 0 0 0 0
0 0 0 0 0 0 0 0 0 0 0 0 0 0 0 0 0 0 0 0 0 0 0 0 0 0 0 0 0 0 0 0 0 0 0 0 0 0
0 0 0 0 0 0 0 0 0 0 0 0 0 0 0 0 0 0 0 0 0 0 0 0 0 0 0 0 0 0 0 0 0 0 0 0 0 0
0 0 0 0 0 0 0 0 0 0 0 0 0 0 0 0 0 0 0 0 0 0 0 0 0 0 0 0 0 0 0 0 0 0 0 0 0 0
0 0 0 0 0 0 0 0 0 0 0 0 0 0 0 0 0 0 0 0 0 0 0 0 0 0 0 0 0 0 0 0 0 0 0 0 0 0
0 0 0 0 0 0 0 0 0 0 0 0 0 0 0 0 0 0 0 0 0 0 0 0 0 0 0 0 0 0 0 0 0 0 0 0 0 0
0 0 0 0 0 0 0 0 0 0 0 0 0 0 0 0 0 0 0 0 0 0 0 0 0 0 0 0 0 0 0 0 0 0 0 0 0 0
0 0 0 0 0 0 0 0 0 0 0 0 0 0 0 0 0 0 0 0 0 0 0 0 0 0 0 0 0 0 0 0 0 0 0 0 0 0
0 0 0 0 0 0 0 0 0 0 0 0 0 0 0 0 0 0 0 0 0 0 0 0 0 0 0 0 0 0 0 0 0 0 0 0 0 0
0 0 0 0 0 0 0 0 0 0 0 0 0 0 0 0 0 0 0 0 0 0 0 0 0 0 0 0 0 0 0 0 0 0 0 0 0 0
0 0 0 0 0 0 0 0 0 0 0 0 0 0 0 0 0 0 0 0 0 0 0 0 0 0 0 0 0 0 0 0 0 0 0 0 0 0
0 0 0 0 0 0 0 0 0 0 0 0 0 0 0 0 0 0 0 0 0 0 0 0 0 0 0 0 0 0 0 0 0 0 0 0 0 0
0 0 0 0 0 0 0 0 0 0 0 0 0 0 0 0 0 0 0 0 0 0 0 0 0 0 0 0 0 0 0 0 0 0 0 0 0 0
0 0 0 0 0 0 0 0 0 0 0 0 0 0 0 0 0 0 0 0 0 0 0 0 0 0 0 0 0 0 0 0 0 0 0 0 0 0
0 0 0 0 0 0 0 0 0 0 0 0 0 0 0 0 0 0 0 0 0 0 0 0 0 0 0 0 0 0 0 0 0 0 0 0 0 0
Wind_Speed
1 1 1 1 1 2 2 3 3 2 3 3 2 2 2 2 5 3 4 9 12 12 12 12 12 12 13 13 13 13 13 13 13 13 13 13 13 14
1 1 1 1 1 1 2 2 3 3 3 2 3 3 3 4 7 4 4 11 12 13 13 13 13 13 13 13 13 13 13 13 14 14 14 14 14 14
2 2 2 2 2 2 1 2 2 2 4 4 2 3 3 4 5 4 4 4 5 12 13 14 14 14 14 14 14 14 14 14 14 14 14 14 15 15
3 2 3 2 2 2 2 2 3 3 4 5 3 3 4 4 4 5 5 4 4 11 14 14 14 14 14 14 14 14 14 14 14 14 14 15 15 15
4 4 4 3 3 3 3 3 3 3 3 4 5 3 3 3 4 4 5 5 5 8 12 13 13 14 14 14 14 14 14 14 14 14 14 14 14 15
4 4 4 5 5 4 3 4 3 3 3 4 5 4 4 4 3 4 5 4 5 5 8 9 12 14 14 15 14 14 13 14 14 15 14 14 14 15
3 4 5 6 7 5 4 4 3 3 3 4 5 4 4 3 4 3 5 5 5 4 4 5 5 5 6 11 12 13 14 14 14 14 14 14 14 14
4 4 5 6 7 9 9 8 7 5 5 4 5 6 7 5 4 4 5 5 6 2 3 5 3 5 5 5 11 15 15 14 14 14 14 14 14 14
5 4 4 5 6 4 7 10 10 12 11 6 7 8 7 6 5 6 6 6 7 4 3 6 4 6 5 7 15 15 15 14 14 14 14 14 14 14
5 5 5 5 5 6 5 5 6 7 8 6 7 8 8 7 7 7 7 7 7 5 4 6 4 5 5 5 12 14 14 13 13 13 13 14 14 14
5 5 5 6 10 10 6 6 6 6 9 12 13 13 15 15 11 5 5 6 7 5 3 4 4 4 4 5 7 11 12 12 12 13 13 13 13 12
4 5 8 8 10 10 6 5 7 7 5 6 8 9 8 10 13 7 5 6 6 5 3 3 3 3 5 3 3 4 5 9 12 13 13 13 13 6
4 4 5 10 11 11 9 6 9 9 5 5 5 5 5 5 5 5 5 6 7 7 3 3 3 3 4 5 3 3 3 3 4 6 9 12 12 9
4 4 5 10 11 11 9 9 12 10 3 4 4 5 5 5 5 5 6 6 7 8 6 5 5 4 5 6 5 3 2 3 4 4 4 8 10 11
4 8 9 10 10 7 9 11 9 4 3 5 5 5 5 5 4 4 5 5 5 6 6 6 6 5 5 6 5 4 4 3 3 3 3 4 4 4
4 6 9 9 7 7 7 6 4 4 4 5 5 5 4 4 4 4 4 3 4 4 4 5 5 5 5 6 6 6 4 4 3 3 4 4 4 4
4 2 2 2 3 3 3 4 3 4 4 4 4 5 5 5 4 3 3 3 4 4 4 2 3 4 6 6 5 6 5 5 5 4 4 5 5 5
5 3 3 3 4 4 4 4 4 4 4 4 4 4 5 5 4 3 3 4 4 4 4 3 2 2 2 4 7 6 5 5 4 4 4 5 6 4
4 3 4 4 4 4 4 4 5 4 4 4 4 4 4 4 4 4 4 4 4 4 4 3 2 2 4 5 4 5 4 4 3 4 4 5 6 6
3 4 4 4 4 4 4 4 5 4 4 4 4 4 4 4 4 4 4 4 4 4 4 3 3 3 5 4 4 4 6 5 4 5 4 4 5 8
4 4 4 4 4 4 4 4 5 5 4 4 4 4 4 4 4 4 4 6 5 4 4 4 4 5 2 2 3 4 4 5 7 5 4 4 4 4
4 4 4 4 4 4 4 4 4 4 4 4 4 4 3 3 4 5 4 4 4 4 5 4 3 2 2 3 5 5 5 5 6 9 10 9 4 3
4 4 4 4 4 4 4 5 5 5 4 4 4 4 3 3 4 4 4 4 4 4 3 3 2 2 3 4 4 5 6 6 4 4 5 8 13 15
Wind_Direction
185 182 197 214 198 206 190 175 181 250 270 261 274 285 283 279 294 299 290 303 310 310 309 309 307 305 303 303 303 303 303 304 303 300 300 301 303 304
177 182 213 229 219 211 203 197 189 201 249 254 251 268 285 291 297 299 288 302 305 305 303 302 301 300 299 297 297 297 298 298 297 297 297 297 299 300
197 199 225 224 223 220 209 203 205 198 245 269 253 266 272 280 294 291 282 280 287 297 298 298 297 296 295 294 294 294 293 294 295 296 295 296 297 297
215 211 231 227 229 223 214 217 218 212 223 268 277 269 266 272 280 287 288 283 274 290 294 294 294 293 294 293 292 292 291 291 292 292 292 293 294 294
214 215 227 221 235 230 223 224 226 232 223 250 276 271 273 272 280 281 276 278 279 286 291 292 291 292 294 292 292 293 292 290 289 288 288 289 291 292
219 220 223 221 228 230 230 229 227 232 234 251 270 276 273 267 261 276 289 274 277 282 284 286 287 290 291 293 293 293 291 288 287 286 285 285 287 288
232 232 232 237 240 238 239 228 219 229 243 255 268 278 275 274 268 266 280 287 278 262 274 277 281 278 283 287 289 289 287 285 285 285 284 284 285 286
237 244 246 248 255 261 264 259 245 237 242 250 264 265 271 266 269 270 280 291 291 253 255 275 261 268 267 260 278 285 284 283 283 285 284 283 284 284
233 240 251 252 264 250 262 267 262 260 257 253 255 259 266 263 267 273 268 267 268 266 267 279 263 266 266 273 282 282 282 282 284 284 283 283 283 283
232 233 239 249 249 252 245 250 252 257 262 256 245 253 256 256 250 262 269 272 269 255 228 268 269 265 274 269 277 277 280 281 284 285 287 286 284 284
238 235 240 243 258 268 262 256 265 266 273 271 269 271 274 277 275 270 265 272 278 268 215 242 266 274 272 266 269 277 281 281 284 287 287 287 286 287
244 242 253 259 267 271 260 254 266 271 266 274 276 280 280 278 280 268 257 264 274 275 227 223 256 274 284 265 253 266 276 280 283 288 289 289 289 286
246 246 248 268 274 277 275 260 266 281 273 266 270 272 271 267 264 252 241 246 259 262 236 219 251 247 255 280 277 257 253 266 280 285 286 288 288 281
245 247 253 271 278 281 281 277 283 291 281 275 274 273 270 266 262 256 251 248 248 255 251 236 252 253 262 271 276 272 262 259 263 271 271 286 289 286
245 259 271 278 284 282 278 284 288 279 270 271 273 273 267 265 266 267 263 257 258 258 252 244 246 251 253 261 271 274 286 275 255 260 268 269 269 275
260 265 277 282 282 280 283 282 267 256 264 265 270 273 274 270 268 262 266 270 274 274 255 244 242 245 257 260 263 270 265 267 271 263 267 269 266 257
268 264 259 266 260 264 264 263 260 266 270 265 267 275 278 275 272 260 256 263 265 273 281 265 244 245 251 256 262 261 263 265 264 268 272 277 270 256
273 256 258 257 262 267 272 274 266 264 264 263 262 264 270 272 275 268 258 259 264 266 268 270 273 286 278 261 236 249 254 260 266 265 260 273 279 268
263 252 256 257 259 263 266 269 272 269 265 263 262 262 263 267 268 269 265 264 263 263 262 258 250 250 270 281 270 226 238 264 272 271 261 258 270 277
245 253 256 256 258 260 262 265 269 268 262 260 261 261 258 261 264 265 262 259 262 267 268 258 240 234 239 257 270 270 250 251 259 269 272 269 268 275
255 255 256 257 258 258 259 260 262 263 261 258 257 256 254 255 261 261 262 265 267 261 262 262 253 257 257 255 270 275 273 258 252 255 263 275 281 282
256 256 257 256 256 257 258 259 262 262 259 256 255 255 253 250 256 258 258 262 260 256 260 268 267 255 228 243 265 277 286 290 281 275 261 244 239 250
257 259 261 260 257 256 256 256 257 259 254 254 255 254 250 252 255 255 256 257 258 259 264 273 273 255 252 253 263 273 279 287 292 294 281 269 262 261